sat.trackr.live / text

‹ back to catalog

TJS-5

NORAD 44978 · 2020-002A

PAYLOAD ACTIVE UNKNOWN

§ Identity

Operator
Country
PRC
Launch date
2020-01-07
Launch site
XICLF
Launch vehicle
Mass (kg)
RCS (m²)

Purposes: comms

External: N2YO · Heavens-Above · Gunter

§ Orbital elements

Epoch: 2026-05-24T23:07:16.320576Z

Period
1,436.11 min
Inclination
0.0662°
Eccentricity
0.0007014
Mean motion
1.00270634 rev/d
Perigee alt
35,757.3 km
Apogee alt
35,816.5 km
Semi-major
42,165.1 km
B*
0.0000e+0
RAAN
275.3367°
Arg perigee
125.4845°
Mean anomaly
296.0818°
Rev number
2,347

§ Raw data

TJS-51 44978U 20002A   26144.96338334 -.00000345  00000+0  00000+0 0  99932 44978   0.0662 275.3367 0007014 125.4845 296.0818  1.00270634 23475

JSON: /api/v1/satellites/44978 · /tle

For live sub-satellite position, see the globe view (requires WebGL).

§ Visibility from observer

Set your observer location to see the next 7 days of passes ≥ 10°. The values pass through the URL so the page stays shareable.

No JS? Fill the form by hand. The geolocation button needs JavaScript.